Pennock, MN

4:28 PM CST on December 06, 2016 (GMT -0600)
Willmar

Weather History for KBDH - October, 2012

Change the Weather History Date:

Monday, October 15, 2012

  Actual Average (KBBB) Record (KBBB)
Temperature  
Mean Temperature 47 °F -  
Max Temperature 66 °F 55 °F 87 °F (1958)
Min Temperature 28 °F 36 °F 21 °F (2006)
Degree Days  
Heating Degree Days 18    
Moisture  
Dew Point 32 °F    
Average Humidity 55    
Maximum Humidity 93    
Minimum Humidity 28    
Precipitation  
Precipitation 0.00 in - - ()
Sea Level Pressure  
Sea Level Pressure 29.86 in    
Wind  
Wind Speed 4 mph (South)    
Max Wind Speed 13 mph    
Max Gust Speed 17 mph    
Visibility 10 miles    
Events      
Averages and records for this station are not official NWS values.
T = Trace of Precipitation, MM = Missing Value Source: NWS Daily Summary

Daily Weather History Graph

Daily Weather History Graph

Search for Another Location

Airport or City:

Trip Planner

Search our weather history database for the weather conditions in past years. The results will help you decide how hot, cold, wet, or windy it might be!

Date:

Astronomy

Oct. 15, 2012 Rise Set
Actual Time 7:37 AM CDT 6:34 PM CDT
Civil Twilight 7:07 AM CDT 7:04 PM CDT
Nautical Twilight 6:33 AM CDT 7:38 PM CDT
Astronomical Twilight 5:59 AM CDT 8:12 PM CDT
Moon 7:51 AM CDT (10/15) 6:30 PM CDT (10/15)
Length of Visible Light 11h 56m
Length of Day
10h 57m
New Moon, 0% of the Moon is Illuminated
Oct 15
New Moon
Oct 21
First Quarter
Oct 29
Full
Nov 6
Last Quarter
Nov 13
New

Hourly Weather History & Observations

Time (CDT) Temp. Windchill Dew Point Humidity Pressure Visibility Wind Dir Wind Speed Gust Speed Precip Events Conditions
12:15 AM 35.6 °F 31.7 °F 30.2 °F 81% 29.94 in 10.0 mi NW 4.6 mph - N/A   Clear
12:35 AM 39.2 °F 35.0 °F 30.2 °F 70% 29.94 in 10.0 mi WNW 5.8 mph - N/A   Clear
12:55 AM 35.6 °F - 28.4 °F 75% 29.94 in 10.0 mi Calm Calm - N/A   Clear
1:15 AM 35.6 °F - 28.4 °F 75% 29.94 in 10.0 mi Calm Calm - N/A   Clear
1:35 AM 35.6 °F 32.8 °F 30.2 °F 81% 29.95 in 10.0 mi West 3.5 mph - N/A   Clear
1:55 AM 35.6 °F - 28.4 °F 75% 29.95 in 10.0 mi Calm Calm - N/A   Clear
2:15 AM 35.6 °F - 30.2 °F 81% 29.95 in 10.0 mi Calm Calm - N/A   Clear
2:35 AM 35.6 °F 32.8 °F 30.2 °F 81% 29.95 in 10.0 mi WNW 3.5 mph - N/A   Clear
2:55 AM 33.8 °F 30.8 °F 28.4 °F 81% 29.95 in 10.0 mi WNW 3.5 mph - N/A   Clear
3:15 AM 33.8 °F - 28.4 °F 81% 29.95 in 10.0 mi Calm Calm - N/A   Clear
3:35 AM 35.6 °F - 30.2 °F 81% 29.94 in 10.0 mi Calm Calm - N/A   Clear
3:55 AM 32.0 °F - 26.6 °F 80% 29.94 in 10.0 mi Calm Calm - N/A   Clear
4:15 AM 30.2 °F - 26.6 °F 86% 29.93 in 10.0 mi Calm Calm - N/A   Clear
4:55 AM 30.2 °F - 28.4 °F 93% 29.93 in 10.0 mi Calm Calm - N/A   Clear
5:15 AM 28.4 °F - 24.8 °F 86% 29.93 in 10.0 mi Calm Calm - N/A   Clear
5:55 AM 30.2 °F 25.4 °F 26.6 °F 86% 29.94 in 7.0 mi WSW 4.6 mph - N/A   Clear
6:15 AM 30.2 °F 26.7 °F 28.4 °F 93% 29.95 in 10.0 mi WSW 3.5 mph - N/A   Clear
6:35 AM 28.4 °F 24.6 °F 26.6 °F 93% 29.95 in 10.0 mi West 3.5 mph - N/A   Clear
6:55 AM 28.4 °F - 24.8 °F 86% 29.94 in 10.0 mi Calm Calm - N/A   Clear
7:15 AM 30.2 °F - 26.6 °F 86% 29.95 in 7.0 mi Calm Calm - N/A   Clear
7:35 AM 30.2 °F - 28.4 °F 93% 29.95 in 5.0 mi Calm Calm - N/A   Clear
7:55 AM 28.4 °F - 26.6 °F 93% 29.95 in 7.0 mi Calm Calm - N/A   Clear
8:15 AM 30.2 °F - 26.6 °F 86% 29.95 in 7.0 mi Calm Calm - N/A   Clear
8:35 AM 33.8 °F - 28.4 °F 81% 29.95 in 10.0 mi Calm Calm - N/A   Clear
8:55 AM 35.6 °F - 30.2 °F 81% 29.96 in 10.0 mi Calm Calm - N/A   Clear
9:15 AM 39.2 °F - 33.8 °F 81% 29.95 in 10.0 mi Calm Calm - N/A   Clear
9:35 AM 42.8 °F - 33.8 °F 70% 29.96 in 10.0 mi Calm Calm - N/A   Clear
9:55 AM 46.4 °F 45.2 °F 35.6 °F 66% 29.96 in 10.0 mi SW 3.5 mph - N/A   Clear
10:35 AM 51.8 °F - 35.6 °F 54% 29.95 in 10.0 mi SW 4.6 mph - N/A   Clear
10:55 AM 53.6 °F - 35.6 °F 51% 29.95 in 10.0 mi Calm Calm - N/A   Clear
11:15 AM 55.4 °F - 35.6 °F 47% 29.95 in 10.0 mi SSW 3.5 mph - N/A   Clear
11:35 AM 55.4 °F - 35.6 °F 47% 29.95 in 10.0 mi South 4.6 mph - N/A   Clear
11:55 AM 57.2 °F - 35.6 °F 44% 29.94 in 10.0 mi SSE 4.6 mph - N/A   Clear
12:15 PM 57.2 °F - 35.6 °F 44% 29.93 in 10.0 mi SSE 4.6 mph - N/A   Clear
12:35 PM 59.0 °F - 35.6 °F 42% 29.92 in 10.0 mi SSE 5.8 mph - N/A   Clear
12:55 PM 60.8 °F - 35.6 °F 39% 29.91 in 10.0 mi SSE 6.9 mph - N/A   Clear
1:15 PM 62.6 °F - 35.6 °F 37% 29.89 in 10.0 mi SSE 8.1 mph - N/A   Clear
1:35 PM 62.6 °F - 35.6 °F 37% 29.88 in 10.0 mi SSE 9.2 mph - N/A   Clear
1:55 PM 64.4 °F - 35.6 °F 34% 29.87 in 10.0 mi SSE 10.4 mph - N/A   Clear
2:15 PM 64.4 °F - 33.8 °F 32% 29.86 in 10.0 mi SSE 6.9 mph - N/A   Clear
2:35 PM 64.4 °F - 33.8 °F 32% 29.85 in 10.0 mi South 5.8 mph - N/A   Clear
2:55 PM 64.4 °F - 32.0 °F 30% 29.84 in 10.0 mi SSW 6.9 mph - N/A   Clear
3:16 PM 64.4 °F - 32.0 °F 30% 29.84 in 10.0 mi South 9.2 mph - N/A   Clear
3:35 PM 66.2 °F - 32.0 °F 28% 29.83 in 10.0 mi SSE 10.4 mph 16.1 mph N/A   Clear
3:55 PM 66.2 °F - 32.0 °F 28% 29.82 in 10.0 mi SSE 10.4 mph - N/A   Clear
4:16 PM 66.2 °F - 32.0 °F 28% 29.81 in 10.0 mi SSE 10.4 mph - N/A   Clear
4:35 PM 66.2 °F - 32.0 °F 28% 29.81 in 10.0 mi SSE 9.2 mph - N/A   Clear
4:55 PM 66.2 °F - 32.0 °F 28% 29.80 in 10.0 mi SSE 8.1 mph - N/A   Clear
5:16 PM 66.2 °F - 32.0 °F 28% 29.79 in 10.0 mi South 8.1 mph - N/A   Clear
5:35 PM 66.2 °F - 32.0 °F 28% 29.78 in 10.0 mi SSE 8.1 mph - N/A   Clear
5:55 PM 66.2 °F - 32.0 °F 28% 29.78 in 10.0 mi SSE 9.2 mph - N/A   Clear
6:16 PM 64.4 °F - 33.8 °F 32% 29.77 in 10.0 mi SE 10.4 mph - N/A   Clear
6:35 PM 62.6 °F - 33.8 °F 34% 29.76 in 10.0 mi SE 9.2 mph - N/A   Clear
6:55 PM 62.6 °F - 33.8 °F 34% 29.76 in 10.0 mi SE 9.2 mph - N/A   Clear
7:15 PM 62.6 °F - 33.8 °F 34% 29.76 in 10.0 mi SE 10.4 mph - N/A   Clear
7:35 PM 60.8 °F - 33.8 °F 36% 29.75 in 10.0 mi SE 9.2 mph - N/A   Clear
7:55 PM 60.8 °F - 33.8 °F 36% 29.74 in 10.0 mi SE 11.5 mph - N/A   Clear
8:15 PM 60.8 °F - 33.8 °F 36% 29.74 in 10.0 mi SE 11.5 mph - N/A   Clear
8:35 PM 60.8 °F - 33.8 °F 36% 29.73 in 10.0 mi SSE 10.4 mph - N/A   Clear
8:55 PM 60.8 °F - 33.8 °F 36% 29.73 in 10.0 mi SSE 10.4 mph - N/A   Clear
9:15 PM 60.8 °F - 35.6 °F 39% 29.72 in 10.0 mi SE 12.7 mph - N/A   Clear
9:35 PM 60.8 °F - 35.6 °F 39% 29.72 in 10.0 mi SSE 11.5 mph - N/A   Clear
9:55 PM 59.0 °F - 35.6 °F 42% 29.71 in 10.0 mi SSE 12.7 mph - N/A   Clear
10:15 PM 59.0 °F - 35.6 °F 42% 29.70 in 10.0 mi SSE 11.5 mph - N/A   Clear
10:35 PM 59.0 °F - 37.4 °F 45% 29.69 in 10.0 mi SSE 11.5 mph 17.3 mph N/A   Clear
10:55 PM 59.0 °F - 37.4 °F 45% 29.69 in 10.0 mi SSE 12.7 mph - N/A   Clear
11:15 PM 59.0 °F - 37.4 °F 45% 29.68 in 10.0 mi SSE 11.5 mph - N/A   Clear
11:35 PM 60.8 °F - 39.2 °F 45% 29.67 in 10.0 mi SSE 11.5 mph - N/A   Clear
11:55 PM 60.8 °F - 39.2 °F 45% 29.67 in 10.0 mi SSE 11.5 mph 17.3 mph N/A   Clear